Time,TemperatureF,DewpointF,PressureIn,WindDirection,WindDirectionDegrees,WindSpeedMPH,WindSpeedGustMPH,Humidity,HourlyPrecipIn,Conditions,Clouds,dailyrainin,SolarRadiationWatts/m^2,SoftwareType,DateUTC
2013-05-20 00:11:00,30.0,29.0,-100.00,East,82,0.0,4.0,95,0.00,,,0.01,0.000000,,2013-05-20 06:11:00,
2013-05-20 00:21:00,30.0,29.0,-100.00,East,82,0.0,4.0,95,0.00,,,0.01,0.000000,,2013-05-20 06:21:00,
2013-05-20 00:32:00,30.0,29.0,-100.00,East,82,0.0,4.0,95,0.00,,,0.01,0.000000,,2013-05-20 06:32:00,
2013-05-20 00:41:00,30.0,29.0,-100.00,East,82,0.0,4.0,95,0.00,,,0.01,0.000000,,2013-05-20 06:41:00,
2013-05-20 01:12:00,30.0,29.0,-100.00,SW,221,6.0,8.0,96,0.00,,,0.01,0.000000,,2013-05-20 07:12:00,
2013-05-20 01:21:00,30.0,29.0,-100.00,SW,221,6.0,8.0,96,0.00,,,0.01,0.000000,,2013-05-20 07:21:00,
2013-05-20 01:32:00,30.0,29.0,-100.00,SW,221,6.0,8.0,96,0.00,,,0.01,0.000000,,2013-05-20 07:32:00,
2013-05-20 01:41:00,30.0,29.0,-100.00,SW,221,6.0,8.0,96,0.00,,,0.01,0.000000,,2013-05-20 07:41:00,
2013-05-20 02:11:00,30.0,29.0,-100.00,WSW,239,3.0,8.0,96,0.00,,,0.01,0.000000,,2013-05-20 08:11:00,
2013-05-20 02:21:00,30.0,29.0,-100.00,WSW,239,3.0,8.0,96,0.00,,,0.01,0.000000,,2013-05-20 08:21:00,
2013-05-20 02:31:00,30.0,29.0,-100.00,WSW,239,3.0,8.0,96,0.00,,,0.01,0.000000,,2013-05-20 08:31:00,
2013-05-20 02:41:00,30.0,29.0,-100.00,WSW,239,3.0,8.0,96,0.00,,,0.01,0.000000,,2013-05-20 08:41:00,
2013-05-20 03:12:00,29.0,28.0,-100.00,SW,222,6.0,8.0,96,0.00,,,0.01,0.000000,,2013-05-20 09:12:00,
2013-05-20 03:21:00,29.0,28.0,-100.00,SW,222,6.0,8.0,96,0.00,,,0.01,0.000000,,2013-05-20 09:21:00,
2013-05-20 03:32:00,29.0,28.0,-100.00,SW,222,6.0,8.0,96,0.00,,,0.01,0.000000,,2013-05-20 09:32:00,
2013-05-20 03:42:00,29.0,28.0,-100.00,SW,222,6.0,8.0,96,0.00,,,0.01,0.000000,,2013-05-20 09:42:00,
2013-05-20 04:12:00,28.0,27.0,-100.00,SW,215,7.0,9.0,97,0.00,,,0.01,0.000000,,2013-05-20 10:12:00,
2013-05-20 04:22:00,28.0,27.0,-100.00,SW,215,7.0,9.0,97,0.00,,,0.01,0.000000,,2013-05-20 10:22:00,
2013-05-20 04:32:00,28.0,27.0,-100.00,SW,215,7.0,9.0,97,0.00,,,0.01,0.000000,,2013-05-20 10:32:00,
2013-05-20 04:42:00,28.0,27.0,-100.00,SW,215,7.0,9.0,97,0.00,,,0.01,0.000000,,2013-05-20 10:42:00,
2013-05-20 05:12:00,26.0,25.0,-100.00,SSW,210,1.0,10.0,96,0.00,,,0.01,0.000000,,2013-05-20 11:12:00,
2013-05-20 05:21:00,26.0,25.0,-100.00,SSW,210,1.0,10.0,96,0.00,,,0.01,0.000000,,2013-05-20 11:21:00,
2013-05-20 05:32:00,26.0,25.0,-100.00,SSW,210,1.0,10.0,96,0.00,,,0.01,0.000000,,2013-05-20 11:32:00,
2013-05-20 05:41:00,26.0,25.0,-100.00,SSW,210,1.0,10.0,96,0.00,,,0.01,0.000000,,2013-05-20 11:41:00,
2013-05-20 06:11:00,28.0,26.0,-100.00,WSW,243,5.0,8.0,92,0.00,,,0.01,0.000000,,2013-05-20 12:11:00,
2013-05-20 06:21:00,28.0,26.0,-100.00,WSW,243,5.0,8.0,92,0.00,,,0.01,0.000000,,2013-05-20 12:21:00,
2013-05-20 06:31:00,28.0,26.0,-100.00,WSW,243,5.0,8.0,92,0.00,,,0.01,0.000000,,2013-05-20 12:31:00,
2013-05-20 06:41:00,28.0,26.0,-100.00,WSW,243,5.0,8.0,92,0.00,,,0.01,0.000000,,2013-05-20 12:41:00,
2013-05-20 07:11:00,28.0,27.0,-100.00,SW,221,5.0,8.0,94,0.00,,,0.01,45.000000,,2013-05-20 13:11:00,
2013-05-20 07:22:00,28.0,27.0,-100.00,SW,221,5.0,8.0,94,0.00,,,0.01,45.000000,,2013-05-20 13:22:00,
2013-05-20 07:31:00,28.0,27.0,-100.00,SW,221,5.0,8.0,94,0.00,,,0.01,45.000000,,2013-05-20 13:31:00,
2013-05-20 07:41:00,28.0,27.0,-100.00,SW,221,5.0,8.0,94,0.00,,,0.01,45.000000,,2013-05-20 13:41:00,
2013-05-20 08:11:00,30.0,27.0,-100.00,SW,235,6.0,7.0,89,0.00,,,0.00,210.000000,,2013-05-20 14:11:00,
2013-05-20 08:22:00,30.0,27.0,-100.00,SW,235,6.0,7.0,89,0.00,,,0.00,210.000000,,2013-05-20 14:22:00,
2013-05-20 08:31:00,30.0,27.0,-100.00,SW,235,6.0,7.0,89,0.00,,,0.00,210.000000,,2013-05-20 14:31:00,
2013-05-20 08:41:00,30.0,27.0,-100.00,SW,235,6.0,7.0,89,0.00,,,0.00,210.000000,,2013-05-20 14:41:00,
2013-05-20 09:11:00,39.0,31.0,-100.00,SW,226,5.0,8.0,73,0.00,,,0.00,478.000000,,2013-05-20 15:11:00,
2013-05-20 09:21:00,39.0,31.0,-100.00,SW,226,5.0,8.0,73,0.00,,,0.00,478.000000,,2013-05-20 15:21:00,
2013-05-20 09:33:00,39.0,31.0,-100.00,SW,226,5.0,8.0,73,0.00,,,0.00,478.000000,,2013-05-20 15:33:00,
2013-05-20 09:42:00,39.0,31.0,-100.00,SW,226,5.0,8.0,73,0.00,,,0.00,478.000000,,2013-05-20 15:42:00,
2013-05-20 10:12:00,42.0,30.0,-100.00,NW,309,4.0,11.0,63,0.00,,,0.00,562.000000,,2013-05-20 16:12:00,
2013-05-20 10:22:00,42.0,30.0,-100.00,NW,309,4.0,11.0,63,0.00,,,0.00,562.000000,,2013-05-20 16:22:00,
2013-05-20 10:33:00,42.0,30.0,-100.00,NW,309,4.0,11.0,63,0.00,,,0.00,562.000000,,2013-05-20 16:33:00,
2013-05-20 10:42:00,42.0,30.0,-100.00,NW,309,4.0,11.0,63,0.00,,,0.00,562.000000,,2013-05-20 16:42:00,
2013-05-20 11:12:00,44.0,29.0,-100.00,NNW,328,4.0,13.0,56,0.00,,,0.00,527.000000,,2013-05-20 17:12:00,
2013-05-20 11:22:00,44.0,29.0,-100.00,NNW,328,4.0,13.0,56,0.00,,,0.00,527.000000,,2013-05-20 17:22:00,
2013-05-20 11:32:00,44.0,29.0,-100.00,NNW,328,4.0,13.0,56,0.00,,,0.00,527.000000,,2013-05-20 17:32:00,
2013-05-20 11:45:00,44.0,29.0,-100.00,NNW,328,4.0,13.0,56,0.00,,,0.00,527.000000,,2013-05-20 17:45:00,
2013-05-20 12:12:00,47.0,29.0,-100.00,NW,322,4.0,13.0,50,0.00,,,0.00,645.000000,,2013-05-20 18:12:00,
2013-05-20 12:23:00,47.0,29.0,-100.00,NW,322,4.0,13.0,50,0.00,,,0.00,645.000000,,2013-05-20 18:23:00,
2013-05-20 12:32:00,47.0,29.0,-100.00,NW,322,4.0,13.0,50,0.00,,,0.00,645.000000,,2013-05-20 18:32:00,
2013-05-20 12:41:00,47.0,29.0,-100.00,NW,322,4.0,13.0,50,0.00,,,0.00,645.000000,,2013-05-20 18:41:00,
2013-05-20 13:11:00,48.0,25.0,-100.00,WNW,295,8.0,17.0,41,0.00,,,0.00,882.000000,,2013-05-20 19:11:00,
2013-05-20 13:21:00,48.0,25.0,-100.00,WNW,295,8.0,17.0,41,0.00,,,0.00,882.000000,,2013-05-20 19:21:00,
2013-05-20 13:32:00,48.0,25.0,-100.00,WNW,295,8.0,17.0,41,0.00,,,0.00,882.000000,,2013-05-20 19:32:00,
2013-05-20 13:41:00,48.0,25.0,-100.00,WNW,295,8.0,17.0,41,0.00,,,0.00,882.000000,,2013-05-20 19:41:00,
2013-05-20 14:12:00,48.0,24.0,-100.00,WNW,292,8.0,17.0,38,0.00,,,0.00,773.000000,,2013-05-20 20:12:00,
2013-05-20 14:21:00,48.0,24.0,-100.00,WNW,292,8.0,17.0,38,0.00,,,0.00,773.000000,,2013-05-20 20:21:00,
2013-05-20 14:32:00,48.0,24.0,-100.00,WNW,292,8.0,17.0,38,0.00,,,0.00,773.000000,,2013-05-20 20:32:00,
2013-05-20 14:42:00,48.0,24.0,-100.00,WNW,292,8.0,17.0,38,0.00,,,0.00,773.000000,,2013-05-20 20:42:00,
2013-05-20 15:11:00,52.0,26.0,-100.00,NW,320,7.0,20.0,36,0.00,,,0.00,940.000000,,2013-05-20 21:11:00,
2013-05-20 15:21:00,52.0,26.0,-100.00,NW,320,7.0,20.0,36,0.00,,,0.00,940.000000,,2013-05-20 21:21:00,
2013-05-20 15:32:00,52.0,26.0,-100.00,NW,320,7.0,20.0,36,0.00,,,0.00,940.000000,,2013-05-20 21:32:00,
2013-05-20 15:43:00,52.0,26.0,-100.00,NW,320,7.0,20.0,36,0.00,,,0.00,940.000000,,2013-05-20 21:43:00,
2013-05-20 16:12:00,51.0,26.0,-100.00,WNW,289,12.0,22.0,38,0.00,,,0.00,739.000000,,2013-05-20 22:12:00,
2013-05-20 16:23:00,51.0,26.0,-100.00,WNW,289,12.0,22.0,38,0.00,,,0.00,739.000000,,2013-05-20 22:23:00,
2013-05-20 16:33:00,51.0,26.0,-100.00,WNW,289,12.0,22.0,38,0.00,,,0.00,739.000000,,2013-05-20 22:33:00,
2013-05-20 16:42:00,51.0,26.0,-100.00,WNW,289,12.0,22.0,38,0.00,,,0.00,739.000000,,2013-05-20 22:42:00,
2013-05-20 17:12:00,48.0,29.0,-100.00,NE,37,10.0,20.0,48,0.00,,,0.00,533.000000,,2013-05-20 23:12:00,
2013-05-20 17:22:00,48.0,29.0,-100.00,NE,37,10.0,20.0,48,0.00,,,0.00,533.000000,,2013-05-20 23:22:00,
2013-05-20 17:32:00,48.0,29.0,-100.00,NE,37,10.0,20.0,48,0.00,,,0.00,533.000000,,2013-05-20 23:32:00,
2013-05-20 17:42:00,48.0,29.0,-100.00,NE,37,10.0,20.0,48,0.00,,,0.00,533.000000,,2013-05-20 23:42:00,
2013-05-20 18:11:00,45.0,28.0,-100.00,NW,309,8.0,20.0,52,0.00,,,0.00,408.000000,,2013-05-21 00:11:00,
2013-05-20 18:21:00,45.0,28.0,-100.00,NW,309,8.0,20.0,52,0.00,,,0.00,408.000000,,2013-05-21 00:21:00,
2013-05-20 18:31:00,45.0,28.0,-100.00,NW,309,8.0,20.0,52,0.00,,,0.00,408.000000,,2013-05-21 00:31:00,
2013-05-20 18:41:00,45.0,28.0,-100.00,NW,309,8.0,20.0,52,0.00,,,0.00,408.000000,,2013-05-21 00:41:00,
2013-05-20 19:11:00,41.0,30.0,-100.00,North,351,4.0,19.0,65,0.00,,,0.00,158.000000,,2013-05-21 01:11:00,
2013-05-20 19:21:00,41.0,30.0,-100.00,North,351,4.0,19.0,65,0.00,,,0.00,158.000000,,2013-05-21 01:21:00,
2013-05-20 19:32:00,41.0,30.0,-100.00,North,351,4.0,19.0,65,0.00,,,0.00,158.000000,,2013-05-21 01:32:00,
2013-05-20 19:42:00,41.0,30.0,-100.00,North,351,4.0,19.0,65,0.00,,,0.00,158.000000,,2013-05-21 01:42:00,
2013-05-20 20:11:00,36.0,33.0,-100.00,SSW,212,5.0,12.0,88,0.01,,,0.01,57.000000,,2013-05-21 02:11:00,
2013-05-20 20:21:00,36.0,33.0,-100.00,SSW,212,5.0,12.0,88,0.01,,,0.01,57.000000,,2013-05-21 02:21:00,
2013-05-20 20:32:00,36.0,33.0,-100.00,SSW,212,5.0,12.0,88,0.01,,,0.01,57.000000,,2013-05-21 02:32:00,
2013-05-20 20:41:00,36.0,33.0,-100.00,SSW,212,5.0,12.0,88,0.01,,,0.01,57.000000,,2013-05-21 02:41:00,
2013-05-20 21:11:00,36.0,34.0,-100.00,SW,229,5.0,12.0,93,0.00,,,0.01,4.000000,,2013-05-21 03:11:00,
2013-05-20 21:21:00,36.0,34.0,-100.00,SW,229,5.0,12.0,93,0.00,,,0.01,4.000000,,2013-05-21 03:21:00,
2013-05-20 21:33:00,36.0,34.0,-100.00,SW,229,5.0,12.0,93,0.00,,,0.01,4.000000,,2013-05-21 03:33:00,
2013-05-20 21:42:00,36.0,34.0,-100.00,SW,229,5.0,12.0,93,0.00,,,0.01,4.000000,,2013-05-21 03:42:00,
2013-05-20 22:12:00,35.0,29.0,-100.00,WNW,284,7.0,12.0,80,0.00,,,0.01,0.000000,,2013-05-21 04:12:00,
2013-05-20 22:23:00,35.0,29.0,-100.00,WNW,284,7.0,12.0,80,0.00,,,0.01,0.000000,,2013-05-21 04:23:00,
2013-05-20 22:33:00,35.0,29.0,-100.00,WNW,284,7.0,12.0,80,0.00,,,0.01,0.000000,,2013-05-21 04:33:00,
2013-05-20 22:42:00,35.0,29.0,-100.00,WNW,284,7.0,12.0,80,0.00,,,0.01,0.000000,,2013-05-21 04:42:00,
2013-05-20 23:12:00,36.0,29.0,-100.00,West,269,7.0,14.0,76,0.00,,,0.01,0.000000,,2013-05-21 05:12:00,
2013-05-20 23:21:00,36.0,29.0,-100.00,West,269,7.0,14.0,76,0.00,,,0.01,0.000000,,2013-05-21 05:21:00,
2013-05-20 23:32:00,36.0,29.0,-100.00,West,269,7.0,14.0,76,0.00,,,0.01,0.000000,,2013-05-21 05:32:00,
2013-05-20 23:42:00,36.0,29.0,-100.00,West,269,7.0,14.0,76,0.00,,,0.01,0.000000,,2013-05-21 05:42:00,